STARLINK-11428 [DTC] (62417 NORAD) Tracking and Keplerian Element Data

This shows tracking and keplerian element data for the satellite.

Feedback or suggestion? Click here.




ElementValue
Catalog62417
NameSTARLINK-11428 [DTC]
Epoch Orbit683
Epoch Day35.06760891
Epoch Year2025
RAAN50.7905
Inclination42.999
Eccentricity0.0002195
Argument of Perigee273.9431
Mean Anonmoly86.1188
Mean Motion15.77857221
Decay Rate3.155E-05
L11 62417U 24249J 25035.06760891 .00003155 00000+0 20990-4 0 9990
L22 62417 42.9990 50.7905 0002195 273.9431 86.1188 15.77857221 6831



Live tracking and technical data element details for STARLINK-11428 [DTC] (NORAD 62417). STARLINK-11428 [DTC] can be tracked NOW for your location showing map with azimuth and elevation plus other details from your city location.







IsCatalogInMostPopularTable: catalog: 62417, numindb: 25
Update: records affected: 1



GetName: 62417 STARLINK-11428 [DTC]

Hit Count: updated at: Sat, 24 May 2025 16:28:30 GMT